Flag for Germany Weather past 2 weeks in Kirchheim unter Teck, Baden-Württemberg, Germany

Now
36 °F

Light rain. More clouds than sun.


Feels Like: 36 °F
Forecast: 27 / 38 °F
Wind: 1 mph from South

Location: Stuttgart-Echterdingen

Current Time: Feb 27, 2015 at 1:08:20 PM

Latest Report: Feb 27, 2015 at 12:20 PM


Visibility: 4 mi

Pressure: 29.83 "Hg

Humidity: 93%

Dew point: 34 °F

Location of Kirchheim unter TeckLocation

Historic Weather in Kirchheim unter Teck — Graph

°F

Kirchheim unter Teck temperature yesterday

Maximum temperature yesterday: 48 °F (at 1:50 PM)
Minimum temperature yesterday: 27 °F (at 2:50 AM)
Average temperature yesterday: 37 °F

Past Weeks' High & Low Weather Summary

 TemperatureHumidityPressure
High55 °F (Feb 20, 2:20 PM)100% (Feb 12, 11:50 PM)30.69 "Hg (Feb 12, 11:50 PM)
Low23 °F (Feb 13, 7:20 AM)34% (Feb 26, 3:20 PM)29.50 "Hg (Feb 23, 3:20 PM)
Average35 °F82%30.01 "Hg
* Reported Feb 12 11:20 AM — Feb 27 11:50 AM, Kirchheim unter Teck, Weather by CustomWeather, © 2015

Note: Actual official high and low records may vary slightly from our data, if they occured in-between our weather recording intervals... More about our weather records

Advertising

Kirchheim unter Teck weather history for previous 24 hours

 ConditionsComfort  
Time TempWeatherWind HumidityBarometerVisibility
11:50 AM
Fri, Feb 27
36 °FRain. More clouds than sun.2 mph93%29.83 "Hg4 mi
11:20 AM36 °FRain. Broken clouds.2 mph93%29.83 "Hg4 mi
10:50 AM36 °FRain. More clouds than sun.3 mph93%29.83 "Hg4 mi
10:20 AM36 °FRain. Broken clouds.5 mph93%29.80 "Hg4 mi
9:50 AM37 °FLight rain. Partly sunny.2 mph87%29.80 "Hg4 mi
9:20 AM37 °FLight rain. Broken clouds.3 mph81%29.80 "HgN/A
8:50 AM37 °FLight rain. Partly sunny.No wind70%29.77 "HgN/A
8:20 AM36 °FLight rain. Broken clouds.1 mph75%29.77 "HgN/A
7:50 AM36 °FLight rain. Broken clouds.1 mph70%29.77 "HgN/A
7:20 AM36 °FBroken clouds.1 mph70%29.77 "HgN/A
6:50 AM34 °FPassing clouds.2 mph81%29.77 "HgN/A
6:20 AM34 °FClear.3 mph81%29.77 "Hg10 mi
5:20 AM34 °FClear.1 mph75%29.80 "Hg10 mi
4:20 AM34 °FClear.1 mph81%29.80 "Hg10 mi
3:50 AM34 °FClear.2 mph81%29.80 "Hg10 mi
3:20 AM34 °FClear.1 mph75%29.83 "Hg10 mi
2:50 AM34 °FClear.1 mph81%29.83 "Hg10 mi
2:20 AM32 °FClear.1 mph80%29.86 "Hg10 mi
1:50 AM32 °FClear.2 mph80%29.86 "Hg10 mi
1:20 AM34 °FClear.3 mph75%29.89 "Hg10 mi
12:50 AM34 °FClear.1 mph70%29.89 "Hg10 mi
12:20 AM34 °FClear.2 mph70%29.89 "Hg10 mi
11:50 PM
Thu, Feb 26
34 °FClear.1 mph70%29.92 "Hg10 mi
11:20 PM36 °FClear.No wind60%29.92 "Hg10 mi
10:50 PM36 °FClear.2 mph60%29.92 "Hg10 mi
10:20 PM36 °FClear.2 mph65%29.95 "Hg10 mi
9:50 PM36 °FClear.2 mph65%29.95 "Hg10 mi
9:20 PM36 °FClear.2 mph60%29.95 "Hg10 mi
8:50 PM37 °FClear.2 mph52%29.98 "Hg10 mi
8:20 PM37 °FClear.2 mph56%29.98 "Hg10 mi
7:50 PM37 °FClear.3 mph60%29.98 "Hg10 mi
7:20 PM39 °FPassing clouds.3 mph52%30.01 "HgN/A
6:50 PM41 °FPassing clouds.5 mph53%30.01 "HgN/A
6:20 PM43 °FClear.5 mph49%30.01 "Hg10 mi
5:50 PM43 °FSunny.7 mph49%30.01 "Hg10 mi
5:20 PM46 °FSunny.8 mph43%30.01 "Hg10 mi
4:50 PM46 °FSunny.8 mph43%30.01 "Hg10 mi
4:20 PM48 °FSunny.8 mph40%30.01 "Hg10 mi
3:50 PM48 °FPassing clouds.7 mph40%30.04 "HgN/A
3:20 PM48 °FPassing clouds.6 mph34%30.04 "HgN/A
2:50 PM48 °FPassing clouds.6 mph40%30.04 "HgN/A
2:20 PM48 °FPassing clouds.6 mph43%30.07 "HgN/A
1:50 PM48 °FPassing clouds.7 mph43%30.07 "HgN/A
1:20 PM46 °FPassing clouds.5 mph50%30.09 "HgN/A
Weather by CustomWeather, © 2015

See weather overviewHow to use our weather pages